Location: Casilda
(33.0440°S, 61.1680°W)
Time: 18:46:43
(UTC-03:00)

ISS - Pass Details

Date: 30 November 2021
Orbit: 417 x 423 km, 51.6° (Epoch: 28 November)

Event Time Altitude Azimuth Distance (km) Brightness Sun altitude
Exits shadow 03:44:17 19° 218° (SW) 1,090 -1.6 -21.8°
Maximum altitude 03:44:28 19° 214° (SSW) 1,087 -1.6 -21.7°
Drops below altitude 10° 03:46:59 10° 166° (SSE) 1,521 -0.1 -21.4°
Sets 03:49:33 0° 147° (SSE) 2,392 1.6 -21.0°
